Weather History for KW99 - July, 2013

Change the Weather History Date:

Saturday, July 6, 2013

  Actual Average (KEKN) Record (KEKN)
Temperature  
Mean Temperature 78 °F 70 °F  
Max Temperature 93 °F 81 °F 94 °F (2012)
Min Temperature 64 °F 59 °F 41 °F (1951)
Degree Days  
Heating Degree Days 0 1  
Month to date heating degree days 6  
Since 1 June heating degree days 61  
Since 1 July heating degree days 6  
Cooling Degree Days 14 5  
Month to date cooling degree days 30  
Year to date cooling degree days 145  
Since 1 June cooling degree days 122  
Growing Degree Days 28 (Base 50)    
Moisture  
Dew Point 67 °F    
Average Humidity 67    
Maximum Humidity 96    
Minimum Humidity 39    
Precipitation  
Precipitation 0.00 in 0.18 in 1.28 in (1929)
Month to date precipitation 1.05  
Year to date precipitation 24.66  
Snow  
Snow 0.00 in - - ()
Month to date snowfall  
Since 1 September snowfall  
Snow Depth -    
Sea Level Pressure  
Sea Level Pressure 30.17 in    
Wind  
Wind Speed 1 mph (South)    
Max Wind Speed 12 mph    
Max Gust Speed 16 mph    
Visibility 10 miles    
Events      
T = Trace of Precipitation, MM = Missing Value Source: NWS Daily Summary

Daily Weather History Graph

Daily Weather History Graph

Search for Another Location

Airport or City:

Trip Planner

Search our weather history database for the weather conditions in past years. The results will help you decide how hot, cold, wet, or windy it might be!

Date:

Astronomy

Jul. 06, 2013 Rise Set
Actual Time 5:57 AM EDT 8:45 PM EDT
Civil Twilight 5:25 AM EDT 9:16 PM EDT
Nautical Twilight 4:45 AM EDT 9:56 PM EDT
Astronomical Twilight 4:00 AM EDT 10:41 PM EDT
Moon 4:41 AM EDT (7/6) 7:25 PM EDT (7/6)
Length of Visible Light 15h 51m
Length of Day
14h 47m
Waning Crescent, 2% of the Moon is Illuminated
Jul 6
Waning Crescent
Jul 8
New
Jul 15
First Quarter
Jul 22
Full
Jul 29
Last Quarter

Hourly Weather History & Observations

Time (EDT) Temp. Heat Index Dew Point Humidity Pressure Visibility Wind Dir Wind Speed Gust Speed Precip Events Conditions
12:15 AM 75.7 °F - 68.7 °F 79% 30.21 in 10.0 mi Calm Calm - N/A   Clear
12:35 AM 76.3 °F - 68.4 °F 76% 30.21 in 10.0 mi Calm Calm - N/A   Clear
12:55 AM 71.8 °F - 68.4 °F 89% 30.20 in 10.0 mi Calm Calm - N/A   Clear
1:15 AM 71.4 °F - 68.4 °F 90% 30.21 in 10.0 mi Calm Calm - N/A   Clear
1:35 AM 70.9 °F - 68.0 °F 91% 30.20 in 10.0 mi Calm Calm - N/A   Clear
1:55 AM 69.8 °F - 67.3 °F 92% 30.20 in 10.0 mi Calm Calm - N/A   Clear
2:15 AM 70.0 °F - 68.0 °F 93% 30.20 in 10.0 mi Calm Calm - N/A   Clear
2:35 AM 69.6 °F - 68.0 °F 95% 30.20 in 10.0 mi Calm Calm - N/A   Clear
2:55 AM 68.7 °F - 66.9 °F 94% 30.20 in 10.0 mi Calm Calm - N/A   Clear
3:15 AM 67.3 °F - 65.7 °F 95% 30.20 in 10.0 mi Calm Calm - N/A   Clear
3:35 AM 65.8 °F - 64.2 °F 94% 30.21 in 10.0 mi Calm Calm - N/A   Clear
3:55 AM 66.0 °F - 64.6 °F 95% 30.21 in 10.0 mi Calm Calm - N/A   Clear
4:15 AM 65.5 °F - 64.0 °F 95% 30.21 in 7.0 mi Calm Calm - N/A   Clear
4:35 AM 65.1 °F - 63.7 °F 95% 30.21 in 7.0 mi Calm Calm - N/A   Clear
4:55 AM 64.9 °F - 63.7 °F 96% 30.21 in 7.0 mi Calm Calm - N/A   Clear
5:15 AM 65.7 °F - 64.4 °F 96% 30.21 in 10.0 mi Calm Calm - N/A   Clear
5:35 AM 65.7 °F - 64.2 °F 95% 30.22 in 7.0 mi Calm Calm - N/A   Clear
5:55 AM 66.2 °F - 65.1 °F 96% 30.23 in 5.0 mi Calm Calm - N/A   Clear
6:15 AM 66.2 °F - 64.8 °F 95% 30.23 in 1.0 mi Calm Calm - N/A   Mist
6:35 AM 66.6 °F - 65.5 °F 96% 30.24 in 5.0 mi Calm Calm - N/A   Clear
6:55 AM 67.8 °F - 66.6 °F 96% 30.23 in 7.0 mi Calm Calm - N/A   Clear
7:15 AM 68.7 °F - 67.6 °F 96% 30.24 in 10.0 mi Calm Calm - N/A   Clear
7:35 AM 70.2 °F - 68.7 °F 95% 30.24 in 10.0 mi Calm Calm - N/A   Clear
7:55 AM 72.0 °F - 68.9 °F 90% 30.24 in 10.0 mi Calm Calm - N/A   Clear
8:15 AM 73.4 °F - 67.6 °F 82% 30.24 in 10.0 mi Calm Calm - N/A   Clear
8:35 AM 74.5 °F - 67.6 °F 79% 30.24 in 10.0 mi Calm Calm - N/A   Clear
8:55 AM 75.9 °F - 67.6 °F 75% 30.24 in 10.0 mi Calm Calm - N/A   Clear
9:15 AM 78.3 °F - 68.9 °F 73% 30.24 in 10.0 mi Calm Calm - N/A   Clear
9:35 AM 79.5 °F - 68.4 °F 69% 30.23 in 10.0 mi Calm Calm - N/A   Clear
9:55 AM 79.9 °F - 68.5 °F 68% 30.22 in 10.0 mi Calm Calm - N/A   Clear
10:15 AM 82.9 °F 86.3 °F 68.9 °F 62% 30.22 in 10.0 mi Calm Calm - N/A   Clear
10:35 AM 84.4 °F 88.2 °F 69.1 °F 60% 30.22 in 10.0 mi Calm Calm - N/A   Clear
10:55 AM 85.3 °F 88.8 °F 68.5 °F 57% 30.22 in 10.0 mi Calm Calm - N/A   Clear
11:15 AM 85.1 °F 88.8 °F 68.7 °F 58% 30.22 in 10.0 mi Calm Calm - N/A   Clear
11:35 AM 86.4 °F 90.0 °F 68.5 °F 55% 30.21 in 10.0 mi Calm Calm - N/A   Clear
11:55 AM 88.0 °F 92.9 °F 70.0 °F 55% 30.20 in 10.0 mi Calm Calm - N/A   Clear
12:15 PM 87.6 °F 92.3 °F 69.6 °F 55% 30.19 in 10.0 mi Calm Calm - N/A   Clear
12:35 PM 87.1 °F 90.9 °F 68.7 °F 54% 30.19 in 10.0 mi Calm Calm - N/A   Scattered Clouds
12:55 PM 88.9 °F 92.6 °F 68.2 °F 50% 30.18 in 10.0 mi Calm Calm - N/A   Scattered Clouds
1:15 PM 88.5 °F 91.9 °F 67.5 °F 50% 30.17 in 10.0 mi Calm Calm - N/A   Mostly Cloudy
1:35 PM 87.8 °F 90.7 °F 67.3 °F 50% 30.17 in 10.0 mi Calm Calm - N/A   Overcast
1:55 PM 87.6 °F 91.1 °F 68.0 °F 52% 30.16 in 10.0 mi Calm Calm - N/A   Overcast
2:15 PM 88.2 °F 92.5 °F 69.1 °F 53% 30.15 in 10.0 mi Calm Calm - N/A   Mostly Cloudy
2:35 PM 88.0 °F 92.9 °F 69.8 °F 55% 30.14 in 10.0 mi Calm Calm - N/A   Mostly Cloudy
2:55 PM 90.5 °F 94.2 °F 67.6 °F 47% 30.13 in 10.0 mi Calm Calm - N/A   Mostly Cloudy
3:15 PM 93.2 °F 97.7 °F 68.0 °F 44% 30.12 in 10.0 mi South 8.1 mph - N/A   Mostly Cloudy
3:35 PM 92.3 °F 95.6 °F 67.1 °F 43% 30.12 in 10.0 mi Calm Calm - N/A   Scattered Clouds
3:55 PM 92.8 °F 96.1 °F 66.7 °F 42% 30.12 in 10.0 mi SSE 5.8 mph - N/A   Scattered Clouds
4:15 PM 92.5 °F 95.4 °F 66.2 °F 42% 30.11 in 10.0 mi South 4.6 mph - N/A   Mostly Cloudy
4:35 PM 92.3 °F 94.3 °F 64.9 °F 40% 30.11 in 10.0 mi South 10.4 mph - N/A   Scattered Clouds
4:55 PM 92.3 °F 95.6 °F 66.9 °F 43% 30.10 in 10.0 mi Calm Calm - N/A   Clear
5:15 PM 93.0 °F 95.0 °F 64.6 °F 39% 30.09 in 10.0 mi SSW 11.5 mph 16.1 mph N/A   Clear
5:35 PM 92.3 °F 94.3 °F 64.6 °F 40% 30.09 in 10.0 mi Calm Calm - N/A   Scattered Clouds
5:55 PM 91.9 °F 93.7 °F 64.8 °F 40% 30.08 in 10.0 mi South 9.2 mph - N/A   Scattered Clouds
6:15 PM 91.4 °F 94.5 °F 66.6 °F 44% 30.08 in 10.0 mi SSW 9.2 mph - N/A   Scattered Clouds
6:35 PM 89.6 °F 93.0 °F 67.3 °F 48% 30.09 in 10.0 mi Calm Calm - N/A   Scattered Clouds
6:55 PM 89.4 °F 91.2 °F 64.8 °F 44% 30.09 in 10.0 mi Calm Calm - N/A   Scattered Clouds
7:15 PM 88.5 °F 89.8 °F 64.0 °F 44% 30.09 in 10.0 mi South 5.8 mph - N/A   Clear
7:35 PM 87.4 °F 88.8 °F 64.4 °F 46% 30.10 in 10.0 mi Calm Calm - N/A   Clear
7:55 PM 86.2 °F 87.6 °F 64.4 °F 48% 30.09 in 10.0 mi Calm Calm - N/A   Clear
8:15 PM 84.4 °F 86.1 °F 65.1 °F 52% 30.10 in 10.0 mi Calm Calm - N/A   Clear
8:35 PM 83.3 °F 85.1 °F 65.1 °F 54% 30.11 in 10.0 mi Calm Calm - N/A   Clear
8:55 PM 82.4 °F 84.2 °F 65.1 °F 56% 30.11 in 10.0 mi Calm Calm - N/A   Clear
9:15 PM 81.7 °F 83.5 °F 65.1 °F 57% 30.12 in 10.0 mi Calm Calm - N/A   Clear
9:35 PM 80.8 °F 82.6 °F 65.1 °F 59% 30.13 in 10.0 mi Calm Calm - N/A   Clear
9:55 PM 80.6 °F 82.4 °F 65.3 °F 59% 30.14 in 10.0 mi Calm Calm - N/A   Clear
10:15 PM 80.6 °F 82.4 °F 65.3 °F 59% 30.14 in 10.0 mi South 9.2 mph - N/A   Clear
10:35 PM 79.5 °F - 65.3 °F 62% 30.15 in 10.0 mi Calm Calm - N/A   Clear
10:55 PM 79.0 °F - 65.7 °F 64% 30.15 in 10.0 mi Calm Calm - N/A   Clear
11:15 PM 77.7 °F - 66.0 °F 67% 30.16 in 10.0 mi Calm Calm - N/A   Clear
11:35 PM 76.6 °F - 66.0 °F 70% 30.16 in 10.0 mi Calm Calm - N/A   Clear
11:55 PM 76.8 °F - 66.2 °F 70% 30.15 in 10.0 mi Calm Calm - N/A   Clear